Laramie, WY

10:35 AM MST on December 11, 2017 (GMT -0700)
Laramie Regional

Weather History for KLAR - April, 2012

Change the Weather History Date:

Thursday, April 12, 2012

  Actual Average Record
Temperature  
Mean Temperature 44 °F 37 °F  
Max Temperature 54 °F 50 °F 71 °F (1992)
Min Temperature 33 °F 24 °F -4 °F (1997)
Degree Days  
Heating Degree Days 21 28  
Month to date heating degree days 258 356  
Since 1 July heating degree days 7231 7591  
Cooling Degree Days 0 0  
Month to date cooling degree days 0 0  
Year to date cooling degree days 0 0  
Moisture  
Dew Point 28 °F    
Average Humidity 64    
Maximum Humidity 96    
Minimum Humidity 32    
Precipitation  
Precipitation T in 0.03 in 0.51 in (1991)
Month to date precipitation 0.04 0.34  
Year to date precipitation 1.15 1.53  
Sea Level Pressure  
Sea Level Pressure 29.64 in    
Wind  
Wind Speed 17 mph (WSW)    
Max Wind Speed 43 mph    
Max Gust Speed 48 mph    
Visibility 10 miles    
Events Rain    
T = Trace of Precipitation, MM = Missing Value Source: NWS Daily Summary

Daily Weather History Graph

Daily Weather History Graph

Search for Another Location

Airport or City:

Trip Planner

Search our weather history database for the weather conditions in past years. The results will help you decide how hot, cold, wet, or windy it might be!

Date:

Astronomy

Apr. 12, 2012 Rise Set
Actual Time 6:27 AM MDT 7:40 PM MDT
Civil Twilight 5:58 AM MDT 8:08 PM MDT
Nautical Twilight 5:24 AM MDT 8:43 PM MDT
Astronomical Twilight 4:48 AM MDT 9:18 PM MDT
Moon 1:31 AM MDT (4/12) 11:22 AM MDT (4/12)
Length of Visible Light 14h 10m
Length of Day
13h 13m
Waning Gibbous, 58% of the Moon is Illuminated
Apr 12
Waning Gibbous
Apr 13
Last Quarter
Apr 21
New
Apr 29
First Quarter
May 5
Full

Hourly Weather History & Observations

Time (MDT) Temp. Windchill Dew Point Humidity Pressure Visibility Wind Dir Wind Speed Gust Speed Precip Events Conditions
12:00 AM 42.8 °F 35.1 °F 39.2 °F 87% 29.86 in 10.0 mi SW 16.1 mph 28.8 mph 0.00 in Rain Light Rain
12:53 AM 42.8 °F 36.2 °F 39.2 °F 87% 29.81 in 10.0 mi ESE 12.7 mph - N/A   Scattered Clouds
1:53 AM 43.0 °F 37.2 °F 41.0 °F 93% 29.58 in 10.0 mi SSE 10.4 mph - N/A   Clear
2:53 AM 41.0 °F 37.1 °F 39.0 °F 93% 29.57 in 10.0 mi West 5.8 mph - 0.00 in   Mostly Cloudy
3:53 AM 39.9 °F 32.1 °F 34.0 °F 79% 29.58 in 10.0 mi SW 13.8 mph - N/A   Scattered Clouds
4:53 AM 39.0 °F 30.6 °F 30.9 °F 73% 29.61 in 10.0 mi WSW 15.0 mph - N/A   Clear
5:53 AM 34.0 °F 26.6 °F 28.9 °F 82% 29.69 in 10.0 mi West 9.2 mph - N/A   Clear
6:53 AM 36.0 °F 29.0 °F 26.1 °F 67% 29.71 in 10.0 mi WSW 9.2 mph - N/A   Clear
7:53 AM 39.9 °F 32.9 °F 28.9 °F 65% 29.69 in 10.0 mi South 11.5 mph - N/A   Clear
8:53 AM 43.0 °F 34.5 °F 27.0 °F 53% 29.65 in 10.0 mi SW 19.6 mph 24.2 mph N/A   Clear
9:53 AM 46.0 °F 37.2 °F 24.1 °F 42% 29.62 in 10.0 mi WSW 26.5 mph 33.4 mph N/A   Clear
10:53 AM 46.0 °F 39.0 °F 25.0 °F 44% 29.65 in 10.0 mi SW 17.3 mph - N/A   Clear
11:53 AM 48.9 °F - 24.1 °F 38% 29.60 in - WSW 20.7 mph 38.0 mph 0.00 in   Clear
12:53 PM 51.1 °F - 24.1 °F 35% 29.59 in 10.0 mi WSW 15.0 mph 33.4 mph N/A   Clear
1:53 PM 50.0 °F - 23.0 °F 35% 29.58 in 10.0 mi WSW 21.9 mph 33.4 mph N/A   Scattered Clouds
2:53 PM 45.0 °F 34.0 °F 25.0 °F 46% 29.62 in 10.0 mi West 39.1 mph 48.3 mph N/A   Mostly Cloudy
3:53 PM 50.0 °F - 21.9 °F 33% 29.59 in 10.0 mi West 25.3 mph 31.1 mph N/A   Partly Cloudy
4:53 PM 48.0 °F - 23.0 °F 37% 29.60 in 10.0 mi West 23.0 mph 35.7 mph 0.00 in   Scattered Clouds
5:53 PM 45.0 °F 37.4 °F 23.0 °F 42% 29.64 in 10.0 mi West 18.4 mph - N/A   Partly Cloudy
6:53 PM 45.0 °F 37.1 °F 24.1 °F 44% 29.64 in 10.0 mi West 19.6 mph - N/A   Clear
7:53 PM 39.9 °F 32.9 °F 23.0 °F 51% 29.65 in 10.0 mi WSW 11.5 mph - N/A   Clear
8:53 PM 37.9 °F 29.2 °F 25.0 °F 60% 29.65 in 10.0 mi WSW 15.0 mph - N/A   Overcast
9:53 PM 37.0 °F 27.4 °F 27.0 °F 67% 29.66 in 10.0 mi NW 17.3 mph - N/A   Mostly Cloudy
10:53 PM 35.1 °F 26.4 °F 26.1 °F 70% 29.64 in 10.0 mi West 12.7 mph - N/A   Clear
11:53 PM 36.0 °F 26.3 °F 24.1 °F 62% 29.62 in 10.0 mi WSW 16.1 mph - N/A   Clear